RYR61LJ LEPA-LEZL

Flight info

Callsign RYR61LJ
Flight time 1h 10m
Altitude 39000
Route EPAMA N733 VLC M985 MAMIS
Aircraft B738/M-SDE3FGILRWY/SB1

Departure

Time 2026-04-17 06:12
Airport Palma de Mallorca Airport (LEPA)

Arrival

Time 2026-04-17 07:22
Airport Seville Airport (LEZL)
Time Latitude Longitude Altitude Speed Heading
2026-04-17 05:53 39.55132 2.72971 37 ft 0 kts 162°
2026-04-17 06:04 39.55139 2.72968 37 ft 4 kts 160°
2026-04-17 06:05 39.55163 2.72954 36 ft 4 kts 147°
2026-04-17 06:05 39.55183 2.72932 33 ft 4 kts 118°
2026-04-17 06:05 39.55187 2.72906 34 ft 2 kts 59°
2026-04-17 06:05 39.55184 2.72900 34 ft 0 kts 59°
2026-04-17 06:08 39.55185 2.72901 37 ft 2 kts 59°
2026-04-17 06:08 39.55206 2.72947 36 ft 11 kts 59°
2026-04-17 06:09 39.55261 2.73034 37 ft 13 kts 19°
2026-04-17 06:09 39.55341 2.72998 37 ft 12 kts 328°
2026-04-17 06:09 39.55417 2.73002 35 ft 12 kts 44°
2026-04-17 06:09 39.55463 2.73094 35 ft 14 kts 58°
2026-04-17 06:10 39.55522 2.73220 37 ft 19 kts 58°
2026-04-17 06:10 39.55598 2.73381 37 ft 21 kts 59°
2026-04-17 06:10 39.55675 2.73542 37 ft 21 kts 58°
2026-04-17 06:10 39.55748 2.73698 37 ft 20 kts 59°
2026-04-17 06:11 39.55817 2.73845 37 ft 18 kts 58°
2026-04-17 06:11 39.55898 2.73892 37 ft 14 kts 332°
2026-04-17 06:11 39.55983 2.73828 37 ft 14 kts 330°
2026-04-17 06:11 39.55983 2.73750 36 ft 11 kts 237°
2026-04-17 06:12 39.55865 2.73500 37 ft 66 kts 239°
2026-04-17 06:12 39.55503 2.72735 36 ft 130 kts 238°
2026-04-17 06:12 39.54967 2.71587 279 ft 155 kts 239°
2026-04-17 06:12 39.54424 2.70383 907 ft 156 kts 238°
2026-04-17 06:13 39.53830 2.69199 1563 ft 159 kts 237°
2026-04-17 06:13 39.53215 2.67995 2180 ft 163 kts 237°
2026-04-17 06:13 39.52576 2.66733 2724 ft 173 kts 237°
2026-04-17 06:13 39.51907 2.65421 3308 ft 178 kts 236°
2026-04-17 06:14 39.51215 2.64062 3916 ft 181 kts 237°
2026-04-17 06:14 39.50495 2.62665 4347 ft 198 kts 237°
2026-04-17 06:14 39.49713 2.61130 4765 ft 210 kts 238°
2026-04-17 06:14 39.48879 2.59487 4948 ft 226 kts 237°
2026-04-17 06:15 39.47991 2.57762 5313 ft 233 kts 237°
2026-04-17 06:15 39.47090 2.56014 5908 ft 234 kts 237°
2026-04-17 06:15 39.46185 2.54252 6462 ft 237 kts 237°
2026-04-17 06:15 39.45290 2.52441 6959 ft 243 kts 245°
2026-04-17 06:16 39.45026 2.50254 7185 ft 255 kts 284°
2026-04-17 06:16 39.45831 2.48163 7456 ft 271 kts 312°
2026-04-17 06:16 39.46857 2.46084 8033 ft 283 kts 288°
2026-04-17 06:16 39.47178 2.43556 8837 ft 286 kts 279°
2026-04-17 06:17 39.47418 2.40989 9614 ft 290 kts 279°
2026-04-17 06:17 39.47678 2.38423 10369 ft 293 kts 281°
2026-04-17 06:17 39.47975 2.35731 10686 ft 314 kts 281°
2026-04-17 06:17 39.48316 2.32835 10941 ft 334 kts 281°
2026-04-17 06:18 39.48684 2.29820 11513 ft 343 kts 281°
2026-04-17 06:18 39.49065 2.26769 12315 ft 343 kts 282°
2026-04-17 06:18 39.49452 2.23716 13120 ft 346 kts 282°
2026-04-17 06:18 39.49850 2.20624 13856 ft 351 kts 282°
2026-04-17 06:19 39.50254 2.17494 14561 ft 354 kts 282°
2026-04-17 06:19 39.50665 2.14326 15250 ft 359 kts 282°
2026-04-17 06:19 39.51078 2.11136 16037 ft 360 kts 282°
2026-04-17 06:19 39.51493 2.07925 16799 ft 363 kts 282°
2026-04-17 06:20 39.51911 2.04691 17525 ft 367 kts 282°
2026-04-17 06:20 39.52334 2.01419 18246 ft 370 kts 282°
2026-04-17 06:20 39.52759 1.98115 18895 ft 374 kts 282°
2026-04-17 06:20 39.53188 1.94777 19520 ft 377 kts 282°
2026-04-17 06:21 39.53618 1.91416 20158 ft 380 kts 282°
2026-04-17 06:21 39.54052 1.88023 20751 ft 383 kts 282°
2026-04-17 06:21 39.54488 1.84602 21344 ft 387 kts 282°
2026-04-17 06:21 39.54928 1.81144 21921 ft 391 kts 282°
2026-04-17 06:22 39.55370 1.77658 22500 ft 394 kts 282°
2026-04-17 06:22 39.55815 1.74135 23069 ft 398 kts 282°
2026-04-17 06:22 39.56263 1.70583 23632 ft 401 kts 282°
2026-04-17 06:22 39.56714 1.67001 24111 ft 404 kts 282°
2026-04-17 06:23 39.57167 1.63392 24589 ft 407 kts 281°
2026-04-17 06:23 39.57621 1.59763 25062 ft 409 kts 281°
2026-04-17 06:23 39.58078 1.56106 25515 ft 412 kts 281°
2026-04-17 06:23 39.58536 1.52425 25945 ft 415 kts 281°
2026-04-17 06:24 39.58997 1.48715 26390 ft 418 kts 281°
2026-04-17 06:24 39.59459 1.44984 26819 ft 421 kts 281°
2026-04-17 06:24 39.59924 1.41230 27243 ft 423 kts 281°
2026-04-17 06:24 39.60339 1.37442 27643 ft 427 kts 276°
2026-04-17 06:25 39.60294 1.33564 28039 ft 432 kts 268°
2026-04-17 06:25 39.60054 1.29670 28450 ft 435 kts 267°
2026-04-17 06:25 39.59769 1.25752 28838 ft 438 kts 267°
2026-04-17 06:25 39.59484 1.21812 29211 ft 440 kts 267°
2026-04-17 06:26 39.59217 1.17842 29576 ft 443 kts 268°
2026-04-17 06:26 39.58967 1.13854 29933 ft 445 kts 268°
2026-04-17 06:26 39.58728 1.09841 30285 ft 447 kts 268°
2026-04-17 06:26 39.58494 1.05811 30564 ft 450 kts 268°
2026-04-17 06:27 39.58260 1.01761 30861 ft 452 kts 268°
2026-04-17 06:27 39.58025 0.97693 31142 ft 454 kts 268°
2026-04-17 06:27 39.57790 0.93659 31425 ft 455 kts 268°
2026-04-17 06:27 39.57550 0.89572 31790 ft 455 kts 268°
2026-04-17 06:28 39.57307 0.85484 32135 ft 455 kts 268°
2026-04-17 06:28 39.57063 0.81396 32496 ft 455 kts 268°
2026-04-17 06:28 39.56817 0.77319 32883 ft 454 kts 268°
2026-04-17 06:28 39.56571 0.73248 33269 ft 452 kts 267°
2026-04-17 06:29 39.56325 0.69194 33659 ft 451 kts 267°
2026-04-17 06:29 39.56078 0.65142 34009 ft 451 kts 267°
2026-04-17 06:29 39.55829 0.61094 34318 ft 450 kts 267°
2026-04-17 06:29 39.55580 0.57060 34663 ft 449 kts 267°
2026-04-17 06:30 39.55330 0.53042 35038 ft 446 kts 268°
2026-04-17 06:30 39.55080 0.49045 35389 ft 444 kts 268°
2026-04-17 06:30 39.54830 0.45066 35696 ft 443 kts 268°
2026-04-17 06:30 39.54579 0.41091 35997 ft 442 kts 268°
2026-04-17 06:31 39.54329 0.37129 36322 ft 440 kts 268°
2026-04-17 06:31 39.54078 0.33194 36703 ft 437 kts 268°
2026-04-17 06:31 39.53827 0.29282 37040 ft 435 kts 268°
2026-04-17 06:31 39.53575 0.25379 37307 ft 434 kts 268°
2026-04-17 06:32 39.53321 0.21483 37565 ft 434 kts 268°
2026-04-17 06:32 39.53067 0.17595 37863 ft 432 kts 268°
2026-04-17 06:32 39.52813 0.13723 38170 ft 431 kts 268°
2026-04-17 06:32 39.52558 0.09861 38447 ft 430 kts 268°
2026-04-17 06:33 39.52302 0.06013 38692 ft 429 kts 268°
2026-04-17 06:33 39.52047 0.02178 38920 ft 428 kts 268°
2026-04-17 06:33 39.51790 -0.01664 39101 ft 427 kts 267°
2026-04-17 06:34 39.51270 -0.09371 39159 ft 430 kts 267°
2026-04-17 06:34 39.50746 -0.17057 39158 ft 427 kts 267°
2026-04-17 06:35 39.50221 -0.24682 39153 ft 424 kts 267°
2026-04-17 06:35 39.49695 -0.32253 39152 ft 421 kts 267°
2026-04-17 06:36 39.49168 -0.39793 39165 ft 420 kts 267°
2026-04-17 06:36 39.48193 -0.47245 39150 ft 424 kts 252°
2026-04-17 06:37 39.45387 -0.53991 39168 ft 431 kts 236°
2026-04-17 06:37 39.41738 -0.60111 39159 ft 434 kts 234°
2026-04-17 06:38 39.38029 -0.66298 39163 ft 436 kts 235°
2026-04-17 06:38 39.34337 -0.72551 39153 ft 439 kts 236°
2026-04-17 06:39 39.30632 -0.78848 39184 ft 441 kts 235°
2026-04-17 06:39 39.26909 -0.85160 39182 ft 442 kts 235°
2026-04-17 06:40 39.23173 -0.91473 39163 ft 443 kts 235°
2026-04-17 06:40 39.19437 -0.97774 39179 ft 442 kts 235°
2026-04-17 06:41 39.16338 -1.02991 39173 ft 440 kts 235°
2026-04-17 06:41 39.12622 -1.09238 39186 ft 438 kts 235°
2026-04-17 06:42 39.08921 -1.15449 39183 ft 436 kts 234°
2026-04-17 06:42 39.05233 -1.21628 39181 ft 434 kts 234°
2026-04-17 06:43 39.01557 -1.27771 39199 ft 433 kts 234°
2026-04-17 06:43 38.97888 -1.33888 39188 ft 431 kts 234°
2026-04-17 06:44 38.94228 -1.39980 39185 ft 430 kts 234°
2026-04-17 06:44 38.90572 -1.46056 39204 ft 430 kts 234°
2026-04-17 06:45 38.86911 -1.52131 39184 ft 431 kts 234°
2026-04-17 06:45 38.83242 -1.58205 39200 ft 431 kts 234°
2026-04-17 06:46 38.79565 -1.64283 39206 ft 431 kts 234°
2026-04-17 06:46 38.75881 -1.70361 39207 ft 432 kts 234°
2026-04-17 06:47 38.72187 -1.76443 39210 ft 433 kts 234°
2026-04-17 06:47 38.68484 -1.82523 39203 ft 433 kts 234°
2026-04-17 06:48 38.64778 -1.88596 39200 ft 433 kts 234°
2026-04-17 06:48 38.61068 -1.94667 39203 ft 433 kts 233°
2026-04-17 06:49 38.57358 -2.00725 39199 ft 432 kts 233°
2026-04-17 06:49 38.53651 -2.06770 39202 ft 432 kts 233°
2026-04-17 06:50 38.49944 -2.12801 39198 ft 431 kts 233°
2026-04-17 06:50 38.46243 -2.18814 39201 ft 430 kts 233°
2026-04-17 06:51 38.42546 -2.24811 39205 ft 430 kts 233°
2026-04-17 06:51 38.38851 -2.30793 39207 ft 429 kts 232°
2026-04-17 06:52 38.35104 -2.36690 39205 ft 428 kts 229°
2026-04-17 06:52 38.31026 -2.42206 39210 ft 427 kts 227°
2026-04-17 06:53 38.26921 -2.47610 39200 ft 427 kts 227°
2026-04-17 06:53 38.22794 -2.53094 39202 ft 426 kts 227°
2026-04-17 06:54 38.18713 -2.58547 39206 ft 425 kts 227°
2026-04-17 06:54 38.14664 -2.63958 39193 ft 425 kts 227°
2026-04-17 06:55 38.10587 -2.69398 39213 ft 425 kts 227°
2026-04-17 06:55 38.06506 -2.74834 39191 ft 426 kts 227°
2026-04-17 06:56 38.02418 -2.80268 39195 ft 426 kts 227°
2026-04-17 06:56 37.98326 -2.85703 39195 ft 426 kts 227°
2026-04-17 06:57 37.94227 -2.91131 39186 ft 426 kts 227°
2026-04-17 06:57 37.90124 -2.96547 39180 ft 426 kts 227°
2026-04-17 06:58 37.86019 -3.01962 39197 ft 426 kts 227°
2026-04-17 06:58 37.81911 -3.07380 39188 ft 426 kts 226°
2026-04-17 06:59 37.77805 -3.12782 39187 ft 426 kts 226°
2026-04-17 06:59 37.74273 -3.18711 39202 ft 423 kts 246°
2026-04-17 06:59 37.73301 -3.22216 39184 ft 424 kts 257°
2026-04-17 07:00 37.72917 -3.25903 39198 ft 423 kts 265°
2026-04-17 07:00 37.72735 -3.29634 38836 ft 430 kts 265°
2026-04-17 07:00 37.72568 -3.33396 38324 ft 428 kts 265°
2026-04-17 07:00 37.72395 -3.37139 37779 ft 426 kts 265°
2026-04-17 07:01 37.72208 -3.40861 37200 ft 425 kts 265°
2026-04-17 07:01 37.72010 -3.44574 36661 ft 424 kts 264°
2026-04-17 07:01 37.71801 -3.48346 36116 ft 439 kts 264°
2026-04-17 07:01 37.71580 -3.52265 35472 ft 456 kts 264°
2026-04-17 07:02 37.71354 -3.56298 34782 ft 464 kts 264°
2026-04-17 07:02 37.71123 -3.60382 34064 ft 468 kts 264°
2026-04-17 07:02 37.70889 -3.64485 33260 ft 469 kts 265°
2026-04-17 07:02 37.70651 -3.68597 32481 ft 470 kts 265°
2026-04-17 07:03 37.70410 -3.72714 31719 ft 470 kts 265°
2026-04-17 07:03 37.70168 -3.76832 30966 ft 470 kts 265°
2026-04-17 07:03 37.69926 -3.80948 30173 ft 471 kts 265°
2026-04-17 07:03 37.69683 -3.85073 29227 ft 471 kts 265°
2026-04-17 07:04 37.69439 -3.89189 28588 ft 468 kts 265°
2026-04-17 07:04 37.69193 -3.93318 27929 ft 475 kts 265°
2026-04-17 07:04 37.68946 -3.97438 27294 ft 479 kts 265°
2026-04-17 07:04 37.68693 -4.01644 26651 ft 481 kts 265°
2026-04-17 07:05 37.68438 -4.05855 26015 ft 482 kts 265°
2026-04-17 07:05 37.68181 -4.10074 25376 ft 482 kts 265°
2026-04-17 07:05 37.67924 -4.14281 24727 ft 478 kts 265°
2026-04-17 07:05 37.67667 -4.18430 24081 ft 470 kts 265°
2026-04-17 07:06 37.67413 -4.22512 23384 ft 463 kts 265°
2026-04-17 07:06 37.67161 -4.26544 22693 ft 459 kts 265°
2026-04-17 07:06 37.66909 -4.30547 22043 ft 455 kts 265°
2026-04-17 07:06 37.66658 -4.34511 21416 ft 451 kts 265°
2026-04-17 07:07 37.66408 -4.38430 20797 ft 443 kts 265°
2026-04-17 07:07 37.66162 -4.42267 20196 ft 435 kts 265°
2026-04-17 07:07 37.65919 -4.46034 19612 ft 427 kts 265°
2026-04-17 07:07 37.65680 -4.49736 19038 ft 420 kts 265°
2026-04-17 07:08 37.65442 -4.53385 18462 ft 415 kts 266°
2026-04-17 07:08 37.65207 -4.56992 17805 ft 410 kts 265°
2026-04-17 07:08 37.64973 -4.60556 17207 ft 405 kts 265°
2026-04-17 07:08 37.64742 -4.64074 16635 ft 399 kts 265°
2026-04-17 07:09 37.64513 -4.67533 16084 ft 393 kts 265°
2026-04-17 07:09 37.64286 -4.70947 15549 ft 388 kts 265°
2026-04-17 07:09 37.64061 -4.74316 15013 ft 383 kts 265°
2026-04-17 07:09 37.63838 -4.77648 14490 ft 379 kts 265°
2026-04-17 07:10 37.63616 -4.80944 13949 ft 376 kts 265°
2026-04-17 07:10 37.63395 -4.84213 13366 ft 372 kts 265°
2026-04-17 07:10 37.63176 -4.87450 12816 ft 368 kts 265°
2026-04-17 07:10 37.62958 -4.90653 12285 ft 364 kts 265°
2026-04-17 07:11 37.62741 -4.93819 11770 ft 360 kts 265°
2026-04-17 07:11 37.62526 -4.96951 11264 ft 357 kts 265°
2026-04-17 07:11 37.62313 -5.00039 10981 ft 348 kts 265°
2026-04-17 07:11 37.62104 -5.03061 10823 ft 345 kts 265°
2026-04-17 07:12 37.61894 -5.06086 10681 ft 348 kts 265°
2026-04-17 07:12 37.61682 -5.09136 10387 ft 350 kts 265°
2026-04-17 07:12 37.61470 -5.12182 9993 ft 348 kts 265°
2026-04-17 07:12 37.61258 -5.15212 9588 ft 344 kts 265°
2026-04-17 07:13 37.61050 -5.18183 9195 ft 337 kts 264°
2026-04-17 07:13 37.60843 -5.21096 8838 ft 330 kts 264°
2026-04-17 07:13 37.60623 -5.23950 8486 ft 324 kts 260°
2026-04-17 07:13 37.59867 -5.26578 8136 ft 318 kts 238°
2026-04-17 07:14 37.58684 -5.28868 7829 ft 315 kts 235°
2026-04-17 07:14 37.57448 -5.31149 7495 ft 315 kts 234°
2026-04-17 07:14 37.56216 -5.33413 7153 ft 312 kts 234°
2026-04-17 07:14 37.55002 -5.35654 6830 ft 308 kts 234°
2026-04-17 07:15 37.53806 -5.37873 6437 ft 306 kts 234°
2026-04-17 07:15 37.52615 -5.40094 6029 ft 305 kts 234°
2026-04-17 07:15 37.51437 -5.42296 5687 ft 302 kts 234°
2026-04-17 07:15 37.50271 -5.44476 5340 ft 299 kts 234°
2026-04-17 07:16 37.49118 -5.46635 5020 ft 294 kts 234°
2026-04-17 07:16 37.47995 -5.48738 4676 ft 284 kts 234°
2026-04-17 07:16 37.46907 -5.50778 4373 ft 279 kts 234°
2026-04-17 07:16 37.45830 -5.52791 4097 ft 277 kts 234°
2026-04-17 07:17 37.44771 -5.54770 3949 ft 268 kts 234°
2026-04-17 07:17 37.43732 -5.56709 3597 ft 262 kts 234°
2026-04-17 07:17 37.41931 -5.60402 3314 ft 235 kts 254°
2026-04-17 07:18 37.41908 -5.62377 3248 ft 221 kts 272°
2026-04-17 07:18 37.41925 -5.64298 3163 ft 219 kts 266°
2026-04-17 07:18 37.41895 -5.66222 3086 ft 221 kts 267°
2026-04-17 07:18 37.41876 -5.68164 2980 ft 223 kts 267°
2026-04-17 07:19 37.41874 -5.70104 2754 ft 217 kts 268°
2026-04-17 07:19 37.41873 -5.71971 2510 ft 211 kts 270°
2026-04-17 07:19 37.41865 -5.73803 2240 ft 208 kts 270°
2026-04-17 07:19 37.41856 -5.75606 1982 ft 205 kts 269°
2026-04-17 07:20 37.41846 -5.77384 1709 ft 201 kts 269°
2026-04-17 07:20 37.41838 -5.79099 1456 ft 190 kts 270°
2026-04-17 07:20 37.41831 -5.80706 1237 ft 175 kts 270°
2026-04-17 07:20 37.41824 -5.82181 983 ft 162 kts 269°
2026-04-17 07:21 37.41795 -5.83596 746 ft 162 kts 270°
2026-04-17 07:21 37.41787 -5.85009 566 ft 161 kts 271°
2026-04-17 07:21 37.41784 -5.86421 332 ft 160 kts 270°
2026-04-17 07:21 37.41784 -5.87797 134 ft 158 kts 270°
2026-04-17 07:22 37.41793 -5.89094 100 ft 126 kts 270°
2026-04-17 07:22 37.41794 -5.89993 98 ft 82 kts 269°
2026-04-17 07:22 37.41794 -5.90621 94 ft 69 kts 270°
2026-04-17 07:22 37.41790 -5.91084 91 ft 34 kts 270°
2026-04-17 07:23 37.41853 -5.91185 90 ft 10 kts 22°
2026-04-17 07:23 37.41894 -5.91104 89 ft 13 kts 59°
2026-04-17 07:23 37.41940 -5.91006 90 ft 13 kts 59°
2026-04-17 07:23 37.41976 -5.90905 90 ft 13 kts 86°
2026-04-17 07:24 37.41978 -5.90797 91 ft 12 kts 89°
2026-04-17 07:24 37.41979 -5.90691 92 ft 12 kts 90°
2026-04-17 07:24 37.41979 -5.90587 92 ft 12 kts 90°
2026-04-17 07:24 37.41979 -5.90487 93 ft 11 kts 91°
2026-04-17 07:25 37.41979 -5.90389 93 ft 11 kts 89°
2026-04-17 07:25 37.41980 -5.90294 94 ft 11 kts 89°
2026-04-17 07:25 37.41980 -5.90202 94 ft 10 kts 90°
2026-04-17 07:25 37.41984 -5.90119 94 ft 9 kts 67°
2026-04-17 07:26 37.42036 -5.90095 94 ft 8 kts 16°
2026-04-17 07:26 37.42053 -5.90044 93 ft 6 kts 87°
2026-04-17 07:26 37.42073 -5.89995 95 ft 6 kts 43°
2026-04-17 07:26 37.42110 -5.89974 93 ft 6 kts 332°
2026-04-17 07:27 37.42140 -5.90011 93 ft 6 kts 315°
2026-04-17 07:27 37.42155 -5.90029 93 ft 0 kts 314°